FW8687 Weather Reports


time (UTC)temp
C
wind
direction
speed
KPH
gust
KPH
rain 1hr
cm
rain 24hr
cm
rain mn
cm
humidity
%
barometer
mb
20260506135853 20 197 1.6 11.3 0.00 0.00 0.00 79 1014.8
20260506133851 20 288 3.2 16.1 0.00 0.00 0.00 79 1015.0
20260506131851 20 296 3.2 11.3 0.00 0.00 0.00 77 1014.9
20260506125850 20 233 3.2 3.2 0.00 0.00 0.00 80 1014.5
20260506123846 19 269 3.2 9.7 0.00 0.00 0.00 83 1014.5
20260506121842 18 263 3.2 4.8 0.00 0.00 0.00 86 1014.4
20260506115843 18 177 1.6 9.7 0.00 0.00 0.00 88 1014.1
20260506113840 17 244 3.2 3.2 0.00 0.00 0.00 90 1013.9
20260506111840 16 120 0.0 1.6 0.00 0.00 0.00 92 1013.7
20260506105835 16 134 0.0 3.2 0.00 0.00 0.00 93 1013.8
20260506103835 15 120 0.0 0.0 0.00 0.00 0.00 93 1013.6
20260506101831 15 119 0.0 0.0 0.00 0.00 0.00 93 1013.7
20260506095827 15 333 0.0 0.0 0.00 0.00 0.00 92 1013.9
20260506093823 15 146 0.0 0.0 0.00 0.00 0.00 91 1013.8
20260506091823 15 146 0.0 0.0 0.00 0.00 0.00 90 1014.1
20260506085818 15 146 0.0 0.0 0.00 0.00 0.00 89 1014.0
20260506083816 16 146 0.0 0.0 0.00 0.00 0.00 87 1014.6
20260506081816 16 295 0.0 0.0 0.00 0.00 0.00 86 1014.4
20260506071807 16 146 0.0 0.0 0.00 0.00 0.00 86 1013.8
20260506061755 16 135 0.0 1.6 0.00 0.00 0.00 82 1014.7
20260506043741 17 133 1.6 3.2 0.00 0.00 0.00 80 1014.9
20260506041739 18 146 0.0 0.0 0.00 0.00 0.00 79 1015.0
20260506035738 18 162 1.6 3.2 0.00 0.00 0.00 78 1015.2
20260506033738 17 121 0.0 0.0 0.00 0.00 0.00 80 1014.9
20260506031737 18 103 0.0 0.0 0.00 0.00 0.00 79 1014.6
20260506025732 18 61 0.0 1.6 0.00 0.00 0.00 77 1015.0
20260506023731 19 134 0.0 0.0 0.00 0.00 0.00 76 1015.2
20260506021726 20 133 0.0 3.2 0.00 0.00 0.00 74 1014.9
20260506015721 20 122 1.6 3.2 0.00 0.00 0.00 73 1015.0
20260506013720 20 84 0.0 1.6 0.00 0.00 0.00 72 1014.5
20260506011719 20 142 0.0 3.2 0.00 0.00 0.00 69 1014.3
20260506005714 21 137 1.6 4.8 0.00 0.00 0.00 67 1013.6
20260506003711 21 74 0.0 1.6 0.00 0.00 0.00 64 1013.6
20260506001707 22 101 0.0 4.8 0.00 0.00 0.00 61 1013.5
20260505235702 23 143 0.0 3.2 0.00 0.00 0.00 58 1013.5
20260505233702 23 124 1.6 3.2 0.00 0.00 0.00 57 1013.7
20260505231657 25 280 1.6 3.2 0.00 0.00 0.00 55 1013.4
20260505225652 25 111 0.0 3.2 0.00 0.00 0.00 54 1013.3
20260505223652 26 15 1.6 3.2 0.00 0.00 0.00 51 1013.2
20260505221649 27 130 3.2 3.2 0.00 0.00 0.00 47 1013.2
20260505215649 27 143 4.8 8.0 0.00 0.00 0.00 46 1013.3
20260505213645 27 104 1.6 4.8 0.00 0.00 0.00 44 1013.2
20260505211644 28 141 1.6 9.7 0.00 0.00 0.00 42 1013.6
20260505205644 28 137 3.2 8.0 0.00 0.00 0.00 40 1013.5
20260505203639 28 192 1.6 8.0 0.00 0.00 0.00 40 1013.7
20260505201636 27 156 1.6 3.2 0.00 0.00 0.00 40 1013.8
20260505195631 28 271 8.0 12.9 0.00 0.00 0.00 42 1014.0
20260505193630 28 104 1.6 9.7 0.00 0.00 0.00 43 1014.5
20260505191627 28 94 4.8 8.0 0.00 0.00 0.00 42 1014.7
20260505185624 27 123 0.0 3.2 0.00 0.00 0.00 44 1015.3
20260505183622 27 243 1.6 4.8 0.00 0.00 0.00 40 1015.3
20260505181620 27 244 6.4 12.9 0.00 0.00 0.00 42 1015.2
20260505175619 27 274 9.7 14.5 0.00 0.00 0.00 43 1015.4
20260505173617 27 224 0.0 1.6 0.00 0.00 0.00 38 1015.5
20260505171614 27 195 1.6 4.8 0.00 0.00 0.00 45 1015.8
20260505165611 26 119 1.6 3.2 0.00 0.00 0.00 48 1015.7
20260505163611 27 179 3.2 11.3 0.00 0.00 0.00 48 1016.2
20260505161606 26 255 8.0 12.9 0.00 0.00 0.00 49 1016.5
20260505151559 24 188 1.6 8.0 0.00 0.00 0.00 53 1016.6